Dewpoint
75 76 77 76 76 75 75 75 75 75 75 74 76 76 76 75 76 74 74 74 72 71 73 72 73 72 74 72 74 72 72 73 74 72 73 74 74 74 75 75 74 74 75 74 74 74 74 74 74 73 73 73 73 73 72 73 73 72 72 71 71 71 72 72 72 72 72 72 72 71 71 72 72 72 72 71 71 71 71 71 71 71 71 71 71
74 77 75 76 77 76 76 75 76 77 75 75 77 78 77 76 75 76 74 73 73 72 74 71 67 67 70 70 70 69 70 71 69 68 72 72 74 74 75 75 75 75 74 74 74 74 74 75 74 74 73 73 72 72 72 73 72 72 72 72 72 72 71 72 72 72 73 72 72 72 72 72 72 72 72 72 72 72 72 71 71 71 71 71 71
75 77 77 77 77 76 76 76 75 75 76 75 76 76 76 76 75 75 74 74 73 74 74 71 71 67 70 70 69 68 67 69 69 69 66 69 73 75 74 75 75 75 74 74 74 74 74 74 74 74 74 74 73 72 71 72 72 72 73 72 72 72 72 72 72 72 73 73 73 72 72 72 72 72 72 72 72 72 72 72 72 72 72 71 71
77 76 76 76 77 76 77 76 74 76 76 75 76 76 76 76 75 75 75 74 74 73 73 70 69 68 72 69 67 69 68 66 63 67 68 72 70 74 75 74 74 74 75 74 74 74 74 74 74 73 74 74 74 73 71 73 73 73 73 73 73 72 72 72 72 72 73 73 73 73 73 73 73 72 73 72 72 73 73 73 72 72 72 72 72
78 77 76 75 76 76 76 75 75 76 75 75 75 76 76 75 76 76 75 74 73 70 73 69 64 68 66 66 67 66 70 70 70 67 64 65 70 70 74 74 73 75 74 75 75 74 75 74 74 74 74 74 74 74 73 73 73 74 73 73 73 72 72 72 72 72 73 73 73 73 73 73 73 73 73 73 73 73 73 73 73 73 73 73 73
78 77 77 76 76 76 76 75 76 76 76 77 76 76 75 75 73 73 74 73 70 71 68 68 71 70 69 67 69 70 68 67 65 66 66 65 69 71 71 73 74 73 74 75 74 75 75 74 74 74 73 74 74 74 73 73 73 74 74 74 73 74 73 74 73 73 73 73 73 73 73 73 73 73 73 73 73 73 73 73 73 73 73 73 73
78 79 77 76 74 75 76 76 77 76 76 77 76 75 74 74 74 72 70 73 67 66 68 69 70 70 75 70 69 71 70 69 71 69 70 73 72 72 73 71 73 74 73 73 74 75 75 75 75 74 74 73 73 73 74 73 74 73 73 74 74 74 73 73 73 73 73 73 73 73 73 73 73 73 74 73 74 74 73 73 73 73 73 73 73
77 78 77 76 75 75 77 76 77 78 77 76 75 75 73 74 73 70 72 66 70 67 74 71 70 70 71 74 75 74 74 73 70 71 68 69 71 70 72 71 72 74 74 72 72 73 75 75 75 74 74 74 73 74 74 73 73 73 73 73 74 74 73 73 73 73 73 73 73 73 73 73 73 73 73 74 74 74 74 74 74 74 73 73 73
76 78 78 76 77 76 75 75 76 76 77 74 74 74 74 70 73 73 72 72 69 65 68 71 70 69 68 70 68 73 70 74 70 68 70 69 71 68 69 70 73 69 72 69 72 73 75 75 75 74 74 73 73 73 73 74 74 73 73 73 73 73 73 73 73 73 73 73 73 73 73 73 73 73 73 73 73 74 74 74 74 74 74 74 74
77 77 78 77 77 77 75 76 75 76 75 74 73 74 73 73 71 76 71 73 72 68 68 66 66 66 69 62 71 71 70 73 74 74 73 71 69 69 70 72 73 69 68 68 72 74 73 75 75 75 74 74 73 74 73 74 73 73 73 73 73 73 73 73 73 72 73 73 74 73 73 73 73 74 74 74 74 73 73 74 74 74 74 74 74
78 79 78 77 77 76 76 75 75 75 73 72 74 73 73 71 72 72 74 72 72 72 72 71 68 66 62 64 70 74 75 71 75 72 70 65 66 67 66 70 70 73 71 69 69 72 73 73 74 75 75 74 74 73 73 74 73 73 73 73 73 73 73 73 73 73 73 73 73 74 73 73 73 73 73 74 74 74 74 74 73 74 74 74 74
78 78 78 78 77 76 76 75 74 74 74 72 74 72 73 72 73 71 71 72 70 73 68 69 68 66 66 67 69 72 72 71 70 66 68 66 66 69 64 66 70 70 68 75 71 70 72 74 74 72 74 74 74 73 73 73 73 73 72 73 73 73 73 73 73 73 73 73 73 73 73 73 73 73 73 73 74 74 74 74 74 74 74 74 74
78 77 77 77 77 76 75 75 74 74 75 75 73 72 73 75 76 74 72 70 68 69 71 66 68 67 69 67 70 70 67 67 67 65 63 61 64 66 66 65 68 67 70 72 69 69 70 73 73 73 72 74 74 73 73 73 73 73 73 73 73 73 73 74 73 73 73 73 73 73 73 73 73 73 73 73 74 74 74 74 74 74 74 74 74
78 77 76 78 76 76 76 75 75 74 75 74 72 70 71 69 75 74 71 70 71 65 66 67 65 68 65 65 68 71 70 68 63 62 57 61 59 62 62 59 60 62 67 71 68 68 69 70 72 73 74 74 73 73 74 72 73 73 73 73 73 73 73 73 73 73 73 73 73 73 73 73 73 73 73 73 73 73 74 74 74 74 74 74 74
77 78 76 75 77 75 74 75 72 76 72 72 74 71 75 70 72 71 70 72 72 69 70 70 65 64 66 66 66 65 68 70 66 60 54 55 57 57 59 58 60 66 67 65 67 67 66 68 70 72 73 73 73 73 74 73 73 72 72 72 72 72 72 72 73 72 72 72 73 73 72 73 73 73 73 73 73 73 73 73 73 73 73 73 74
77 76 76 77 75 74 74 74 74 74 75 75 74 72 75 73 73 72 72 66 65 67 69 69 67 66 64 63 62 63 65 66 66 64 57 55 55 54 59 59 64 68 65 63 65 65 66 69 70 72 71 73 73 73 74 74 71 70 71 70 70 70 71 72 72 72 72 72 72 72 73 73 73 73 73 73 73 73 73 73 73 73 73 73 74
77 76 75 75 75 74 75 73 75 73 73 73 72 70 72 69 71 72 72 68 64 66 69 70 70 70 66 66 64 63 61 61 55 68 60 57 54 54 62 61 66 68 66 68 75 65 64 66 69 69 70 71 72 72 73 72 72 72 70 69 68 67 68 68 69 70 70 69 69 70 70 71 72 72 73 73 73 73 73 73 73 73 73 73 73
75 76 74 74 74 74 75 73 73 75 73 73 72 74 70 72 68 69 69 69 67 66 67 69 70 71 68 70 69 63 65 66 64 65 68 65 64 65 64 56 66 65 67 67 70 66 64 64 66 67 68 66 68 69 70 72 73 72 70 68 65 64 65 66 67 68 68 67 68 68 68 68 68 69 69 70 72 73 73 73 73 73 73 73 73
74 74 74 74 74 74 75 73 73 73 73 72 71 69 66 68 67 68 70 69 71 69 66 68 70 70 67 64 65 63 64 65 64 64 64 67 67 65 66 62 61 62 63 62 58 60 63 67 65 66 67 67 66 67 65 65 65 67 66 64 63 63 63 64 65 65 66 65 65 66 66 66 67 67 68 68 69 70 71 72 73 73 73 73 73
74 75 74 74 74 74 75 74 73 71 72 70 69 68 72 69 69 70 70 72 71 70 67 68 68 69 68 68 67 67 66 66 65 65 66 63 67 63 60 58 56 54 62 63 51 59 58 65 63 66 64 67 68 67 65 66 67 66 65 64 62 61 62 63 63 64 63 63 64 64 65 65 65 66 66 67 68 68 69 69 70 71 72 73 73
75 74 74 73 74 74 74 74 72 72 70 69 68 68 68 69 70 70 72 71 71 70 70 69 68 68 68 67 67 68 68 65 65 66 66 63 62 60 63 60 59 54 57 57 64 62 64 67 66 64 68 64 65 66 65 67 68 66 64 63 61 61 61 61 62 62 61 62 62 62 63 64 64 65 65 66 66 67 67 68 68 69 70 71 72
75 75 74 73 73 73 73 72 72 67 68 67 68 69 69 69 69 69 70 70 70 71 71 73 70 69 69 70 71 68 69 66 65 65 65 65 62 60 57 62 64 68 66 56 65 62 66 66 66 64 64 69 66 64 66 66 66 65 61 62 62 62 62 62 62 61 61 61 61 61 61 62 63 63 64 64 65 65 66 66 67 67 68 69 69
73 75 73 73 73 73 71 71 69 71 70 72 69 66 66 68 68 70 70 69 69 70 68 70 71 71 69 69 69 65 68 66 66 66 64 65 64 58 55 54 53 61 68 63 66 66 66 67 65 62 66 66 68 72 66 67 64 65 64 64 64 64 64 64 64 63 63 62 63 62 62 62 62 62 62 62 63 64 64 65 65 66 66 66 67
74 73 72 69 74 73 72 71 71 69 68 71 69 68 65 67 70 70 70 69 71 72 70 69 68 69 67 64 66 65 65 65 62 69 63 65 63 62 61 62 62 65 64 68 66 67 69 64 65 62 65 66 69 72 69 67 67 68 67 66 67 66 66 65 65 65 64 65 65 64 63 63 63 63 63 63 63 63 63 63 64 64 65 65 65
74 73 72 71 73 74 73 73 70 70 70 70 73 68 71 69 70 69 69 69 69 69 69 68 66 67 65 63 61 62 64 67 67 63 63 71 63 64 59 59 62 61 65 70 66 67 66 66 64 70 71 64 64 69 69 68 66 69 65 67 67 68 68 68 67 67 66 66 66 65 64 65 65 64 64 64 64 64 64 64 63 63 64 64 64
72 73 71 71 72 73 73 71 71 72 71 71 71 70 71 69 69 69 68 69 69 69 69 67 70 68 68 65 60 64 62 63 62 65 61 63 64 63 64 64 62 61 64 65 71 64 64 62 63 65 65 66 65 67 67 64 65 70 68 65 67 67 68 67 67 67 66 66 66 66 66 65 65 65 65 65 64 64 65 65 65 65 64 64 64
73 73 74 73 73 73 71 71 70 70 71 71 70 72 71 72 71 70 69 69 69 70 68 67 66 66 66 71 67 64 68 69 62 63 64 64 65 65 66 62 62 61 62 65 64 63 57 64 64 66 63 67 67 68 68 67 66 72 70 63 64 67 67 66 66 66 66 66 66 66 66 66 66 65 66 66 65 65 65 64 64 65 65 65 64
75 73 73 72 72 70 70 70 70 69 70 71 71 70 71 71 72 70 70 68 69 69 69 71 68 69 68 71 71 67 65 65 67 66 67 66 67 69 69 67 63 59 62 61 62 62 61 62 68 68 69 69 68 69 68 65 64 71 70 65 65 65 65 65 65 66 66 66 66 66 66 67 66 66 66 65 65 65 65 65 65 64 64 65 65
73 72 71 72 72 70 69 69 69 69 69 70 70 71 71 70 69 71 69 68 69 69 69 68 70 63 66 66 69 68 69 71 68 68 72 72 70 70 69 67 65 62 61 60 60 60 62 56 57 70 67 69 69 66 67 66 66 65 65 65 65 67 66 65 65 66 66 66 65 65 65 66 65 65 66 66 65 65 65 65 65 65 64 64 64
72 71 71 70 72 71 70 69 69 69 68 68 70 70 70 70 70 70 69 70 70 70 69 70 68 69 69 70 67 67 68 68 67 65 68 68 69 68 69 67 67 64 63 60 60 62 62 64 58 66 67 68 68 68 66 66 67 66 66 65 64 64 64 65 65 66 66 65 65 65 65 65 65 65 65 64 64 65 65 65 65 65 65 64 65
73 73 72 70 71 70 71 69 69 69 69 69 70 70 70 69 69 69 69 69 71 69 70 69 69 70 69 66 68 69 71 69 70 68 71 68 68 68 68 67 67 65 64 63 60 63 63 62 64 61 64 68 63 66 67 66 67 65 65 65 64 65 65 64 65 65 65 65 64 64 64 63 64 64 64 64 64 65 65 65 65 65 65 64 64
73 73 72 70 70 68 69 67 67 68 68 68 69 69 70 70 68 67 67 68 68 69 68 68 67 68 67 66 68 69 69 69 69 67 68 69 68 69 67 67 67 67 67 65 62 61 65 63 64 64 63 62 67 64 63 63 66 68 65 65 65 66 65 64 65 64 63 63 63 63 63 62 63 63 63 63 64 64 65 65 64 64 64 64 64
72 72 72 71 70 69 68 68 67 67 68 68 69 69 69 69 69 69 68 68 68 68 68 68 66 67 67 67 68 68 70 69 68 67 66 68 68 67 67 67 67 66 66 65 64 63 65 66 66 65 65 65 62 66 65 65 65 66 66 65 65 64 64 64 64 65 64 63 63 62 62 62 62 63 63 63 64 65 65 65 64 63 63 63 63
72 71 72 71 70 70 68 69 68 68 69 69 68 69 69 69 69 68 68 69 68 68 67 67 68 66 67 67 67 67 68 67 67 66 66 66 65 65 66 66 66 66 67 65 64 64 62 64 66 66 65 65 63 66 64 64 64 66 65 65 65 65 64 64 63 64 64 63 62 61 61 61 62 62 62 63 63 63 64 64 63 63 63 62 62
73 72 72 70 71 70 69 68 69 68 69 69 69 68 68 69 68 68 68 68 67 67 67 66 66 67 67 67 66 66 66 66 67 66 65 66 65 65 65 64 65 66 67 66 64 62 61 62 65 63 64 65 64 64 65 65 66 66 65 64 63 63 64 63 63 63 63 63 62 62 61 61 61 62 62 62 62 62 62 61 61 61 61 60 60
72 73 72 71 70 70 69 68 69 68 69 68 68 68 69 69 68 68 68 68 67 67 67 66 65 66 66 66 65 64 65 66 66 66 66 66 67 67 66 66 66 66 66 67 67 65 64 63 63 63 64 64 64 65 65 65 63 63 64 64 65 64 64 64 64 64 63 62 62 61 61 60 60 60 60 60 60 60 59 59 59 60 59 59 59
72 72 72 71 71 70 69 68 68 68 68 68 68 67 68 69 69 68 68 68 68 67 67 66 67 66 66 65 65 65 66 65 66 66 66 66 65 66 66 66 67 66 65 66 67 66 64 63 63 64 65 64 64 64 65 64 64 65 65 64 64 64 65 64 62 62 62 62 62 61 60 60 60 60 60 60 60 59 59 59 58 58 58 58 58
73 72 71 70 70 70 69 68 68 68 69 68 68 67 67 68 69 68 67 67 66 67 66 66 66 66 66 66 66 65 65 64 64 65 65 65 66 66 65 66 66 67 67 67 66 66 65 65 64 63 63 63 63 64 64 64 63 63 63 64 65 64 64 63 62 61 61 60 61 63 63 61 60 60 60 60 59 59 59 58 58 57 57 57 56
71 71 71 70 70 70 69 68 68 68 69 69 69 68 68 68 69 68 67 66 66 66 66 65 65 65 65 65 66 66 65 65 64 64 65 66 65 64 65 66 66 66 66 66 66 65 65 64 64 64 64 64 64 63 65 65 65 64 62 63 62 62 63 63 63 63 61 61 62 62 61 60 60 60 58 58 59 59 59 58 58 57 57 56 55
71 71 70 70 70 70 70 68 68 69 69 68 68 68 68 68 68 67 67 66 65 66 66 66 64 63 64 64 63 65 65 66 66 65 65 65 66 65 66 67 67 66 66 66 65 64 64 63 62 61 62 61 62 63 63 63 63 64 65 64 61 61 62 64 64 63 63 63 63 61 61 60 60 60 59 59 59 59 59 59 59 60 59 57 56
72 71 71 71 70 70 70 68 68 69 68 67 68 68 67 68 67 66 66 65 65 65 65 64 65 64 64 63 62 63 65 67 67 67 66 66 65 65 66 67 67 66 65 64 64 64 63 62 61 61 61 61 61 61 60 61 61 61 64 63 61 61 62 62 62 64 64 62 62 60 60 60 60 61 60 61 62 62 62 61 60 61 60 57 57
74 73 72 72 69 70 69 68 69 70 68 67 66 63 65 67 66 66 66 66 65 64 65 65 64 64 63 63 63 66 67 68 68 66 65 66 66 65 67 68 68 66 65 64 63 62 62 61 60 59 58 57 58 59 59 60 60 62 62 63 61 62 61 60 61 62 63 62 61 60 60 61 60 60 61 60 60 60 59 59 58 58 59 58 58
74 74 74 72 69 69 68 67 68 68 68 67 62 61 63 65 66 67 66 65 65 65 65 65 64 64 64 67 67 67 67 68 68 68 67 66 67 67 66 66 67 66 64 63 62 62 62 60 60 59 58 58 58 59 60 59 60 62 62 61 61 60 60 58 57 59 64 62 62 60 60 61 60 59 59 59 58 58 57 57 59 59 57 57 57
75 74 73 73 71 69 69 68 68 67 68 65 60 62 63 63 65 66 65 65 65 65 65 64 67 68 68 66 65 64 64 66 67 68 68 67 66 66 66 65 64 64 64 64 63 62 61 60 60 59 59 59 60 60 59 59 62 61 61 61 60 60 59 58 58 57 61 63 60 59 58 59 58 57 56 57 57 57 57 57 57 58 57 56 56
75 74 75 73 72 69 68 68 67 66 68 61 60 61 62 61 63 65 66 65 65 67 69 68 67 68 68 66 64 64 66 64 66 69 69 68 66 65 65 65 64 63 61 61 61 63 62 62 60 60 59 59 60 61 62 62 62 60 60 60 60 59 59 58 58 57 59 61 57 55 54 55 57 56 55 56 56 57 56 57 57 57 57 56 56
75 74 73 73 72 71 69 68 67 67 66 59 59 59 60 60 62 64 65 65 67 67 66 66 64 64 66 66 66 66 66 67 67 69 69 69 69 68 67 67 65 65 63 60 60 59 61 62 61 60 61 62 61 62 63 63 61 60 59 58 59 58 57 56 57 57 57 58 56 56 55 54 56 55 54 55 56 56 57 57 57 57 57 56 56
74 74 73 72 72 70 69 68 68 65 63 59 58 58 59 59 60 63 66 65 65 65 66 65 65 63 64 69 69 66 66 67 67 68 68 68 67 67 67 65 64 64 63 60 61 63 62 61 61 61 61 62 63 63 63 63 61 60 59 58 58 57 57 57 56 56 56 57 57 56 53 53 55 55 56 56 58 56 55 54 54 54 54 54 54
73 74 73 72 71 69 69 67 65 64 64 58 57 57 57 57 59 64 65 65 63 63 64 64 64 64 68 70 69 66 65 67 67 66 68 68 67 66 65 64 64 63 61 62 58 58 62 63 63 62 61 61 60 63 62 59 60 60 59 57 57 57 56 55 53 53 52 53 54 54 52 51 55 52 51 51 52 51 53 54 54 54 53 53 53
72 73 72 71 71 68 67 67 65 64 64 58 56 56 56 56 59 64 64 62 62 62 62 64 64 64 70 69 68 68 67 68 65 62 64 67 66 64 64 63 62 60 59 59 58 57 57 56 56 56 55 55 54 54 53 53 57 57 58 57 55 54 54 53 54 52 51 51 51 51 50 48 50 50 50 52 52 51 50 50 51 52 52 52 52
71 70 69 69 69 69 67 65 62 65 64 58 54 54 54 55 59 62 62 61 62 62 63 64 65 69 69 70 68 68 68 67 62 59 60 64 64 64 62 61 60 59 59 57 55 64 58 57 56 55 55 55 55 54 54 53 53 54 56 55 55 54 54 53 51 51 50 51 52 51 50 50 52 53 49 48 48 48 47 47 49 51 54 54 54
71 70 68 67 66 67 64 63 64 63 63 59 53 54 53 53 58 61 61 62 62 64 64 64 68 69 69 68 69 68 68 66 56 57 59 62 63 63 63 61 59 58 59 61 61 60 63 61 62 62 61 59 59 59 60 56 55 56 57 57 56 56 55 55 54 53 52 52 53 56 49 50 48 48 47 44 42 44 47 48 52 55 56 56 56